Preview of NWS' New Version of Forecast
This preview is not operational and should not be used for support decisions.

Regional Weather Roundup (RWR)

Issued by National Weather Service (NWS)

                            
000
ASUS44 KMEG 200100
RWRTN 
TENNESSEE HOURLY STATE WEATHER ROUNDUP
NATIONAL WEATHER SERVICE MEMPHIS TN
800 PM CDT FRI APR 19 2019

TNZ002-004-019-021-049-052-054-088>092-200200-
WEST TENNESSEE
  
CITY           SKY/WX    TMP DP  RH WIND       PRES   REMARKS
MEMPHIS INTL   LGT RAIN  47  44  90 W6        29.79S                  
NWS MEMPHIS      N/A     46 N/A N/A MISG        N/A                   
JACKSON        LGT RAIN  45  42  89 NW15G22   29.74R                  
DYERSBURG      LGT RAIN  47  44  90 NW8       29.76R                  
$$

TNZ008-025-027-028-033-062-065-066-200200-
NORTH MIDDLE TENNESSEE
  
CITY           SKY/WX    TMP DP  RH WIND       PRES   REMARKS
NASHVILLE      LGT RAIN  45  41  86 W8        29.60R FOG              
CLARKSVILLE    CLOUDY    45  40  82 NW9       29.62R                  
SMYRNA         LGT RAIN  45  43  93 NW14      29.61R FOG              
CROSSVILLE     LGT RAIN  43  41  93 W17G23    29.51R FOG              
$$

TNZ061-075-076-078-094-096-097-200200-
SOUTH MIDDLE TENNESSEE
  
CITY           SKY/WX    TMP DP  RH WIND       PRES   REMARKS
$$

TNZ017-018-042-046-047-200200-
NORTHEAST TENNESSEE
  
CITY           SKY/WX    TMP DP  RH WIND       PRES   REMARKS
TRI CITIES     MOCLDY    63  58  83 SW16      29.40R                  
$$

TNZ012-013-036-069-073-074-200200-
CENTRAL EAST TENNESSEE
  
CITY           SKY/WX    TMP DP  RH WIND       PRES   REMARKS
KNOXVILLE      RAIN      53  51  93 W12       29.43R                  
OAK RIDGE      MOCLDY    51  47  86 VRB5      29.45R                  
$$

TNZ083-085-099-200200-
SOUTHEAST TENNESSEE
  
CITY           SKY/WX    TMP DP  RH WIND       PRES   REMARKS
CHATTANOOGA    MOCLDY    51  42  71 W12       29.56R                  
$$

SKY/WX REPORTED AS FAIR MEANS FEW OR NO CLOUDS BELOW
12 THOUSAND FEET.